| time (UTC) | temp C | wind direction | speed KPH | gust KPH | rain 1hr cm | rain 24hr cm | rain mn cm | humidity % | barometer mb |
| 20260506025423 | 8 | 54 | 11.3 | 35.4 | 0.00 | 0.00 | 0.00 | 88 | 1010.9 |
| 20260506025338 | 8 | 66 | 9.7 | 35.4 | 0.00 | 0.00 | 0.00 | 87 | 1011.0 |
| 20260506024924 | 8 | 66 | 12.9 | 35.4 | 0.00 | 0.00 | 0.00 | 87 | 1011.1 |
| 20260506024839 | 8 | 80 | 16.1 | 35.4 | 0.00 | 0.00 | 0.00 | 87 | 1011.1 |
| 20260506024423 | 8 | 80 | 8.0 | 30.6 | 0.00 | 0.00 | 0.00 | 87 | 1010.9 |
| 20260506024339 | 8 | 83 | 16.1 | 30.6 | 0.00 | 0.00 | 0.00 | 86 | 1011.0 |
| 20260506024313 | 8 | 87 | 9.7 | 24.1 | 0.00 | 0.00 | 0.00 | 86 | 1011.1 |
| 20260506023840 | 8 | 66 | 9.7 | 27.4 | 0.00 | 0.00 | 0.00 | 86 | 1010.9 |
| 20260506023425 | 8 | 26 | 9.7 | 29.0 | 0.00 | 0.00 | 0.00 | 85 | 1010.9 |
| 20260506023405 | 8 | 92 | 14.5 | 41.8 | 0.00 | 0.00 | 0.00 | 85 | 1010.8 |
| 20260506023348 | 8 | 78 | 3.2 | 30.6 | 0.00 | 0.00 | 0.00 | 85 | 1011.0 |
| 20260506023339 | 8 | 59 | 14.5 | 29.0 | 0.00 | 0.00 | 0.00 | 85 | 1010.9 |
| 20260506022926 | 8 | 89 | 9.7 | 41.8 | 0.00 | 0.00 | 0.00 | 85 | 1011.1 |
| 20260506022918 | 8 | 49 | 19.3 | 30.6 | 0.00 | 0.00 | 0.00 | 85 | 1011.0 |
| 20260506022855 | 8 | 66 | 17.7 | 41.8 | 0.00 | 0.00 | 0.00 | 85 | 1010.9 |
| 20260506022416 | 8 | 85 | 20.9 | 29.0 | 0.00 | 0.00 | 0.00 | 85 | 1010.9 |
| 20260506022411 | 8 | 57 | 16.1 | 30.6 | 0.00 | 0.00 | 0.00 | 85 | 1011.0 |
| 20260506022350 | 8 | 93 | 9.7 | 41.8 | 0.00 | 0.00 | 0.00 | 85 | 1011.0 |
| 20260506021928 | 8 | 91 | 20.9 | 30.6 | 0.00 | 0.00 | 0.00 | 85 | 1011.1 |
| 20260506021737 | 8 | 75 | 9.7 | 29.0 | 0.00 | 0.00 | 0.00 | 85 | 1010.8 |
| 20260506021315 | 8 | 74 | 9.7 | 30.6 | 0.00 | 0.00 | 0.00 | 85 | 1010.9 |
| 20260506020611 | 8 | 55 | 4.8 | 30.6 | 0.00 | 0.00 | 0.00 | 85 | 1010.8 |
| 20260506015924 | 8 | 40 | 16.1 | 27.4 | 0.00 | 0.00 | 0.00 | 85 | 1010.9 |
| 20260506015850 | 8 | 62 | 9.7 | 27.4 | 0.00 | 0.00 | 0.00 | 85 | 1010.8 |
| 20260506015423 | 8 | 28 | 16.1 | 29.0 | 0.00 | 0.00 | 0.00 | 85 | 1010.6 |
| 20260506015338 | 8 | 63 | 16.1 | 29.0 | 0.00 | 0.00 | 0.00 | 85 | 1010.6 |
| 20260506015240 | 8 | 33 | 16.1 | 29.0 | 0.00 | 0.00 | 0.00 | 85 | 1010.7 |
| 20260506015112 | 8 | 48 | 16.1 | 29.0 | 0.00 | 0.00 | 0.00 | 85 | 1010.6 |
| 20260506014424 | 8 | 89 | 4.8 | 25.7 | 0.00 | 0.00 | 0.00 | 85 | 1010.4 |
| 20260506014336 | 8 | 77 | 9.7 | 25.7 | 0.00 | 0.00 | 0.00 | 85 | 1010.4 |
| 20260506013922 | 9 | 59 | 9.7 | 29.0 | 0.00 | 0.00 | 0.00 | 85 | 1010.4 |
| 20260506013841 | 9 | 57 | 14.5 | 29.0 | 0.00 | 0.00 | 0.00 | 85 | 1010.2 |
| 20260506013422 | 9 | 96 | 8.0 | 32.2 | 0.00 | 0.00 | 0.00 | 85 | 1010.4 |
| 20260506013340 | 9 | 87 | 4.8 | 33.8 | 0.00 | 0.00 | 0.00 | 85 | 1010.2 |
| 20260506012925 | 9 | 73 | 17.7 | 33.8 | 0.00 | 0.00 | 0.00 | 85 | 1010.4 |
| 20260506012837 | 9 | 68 | 14.5 | 33.8 | 0.00 | 0.00 | 0.00 | 85 | 1010.1 |
| 20260506012422 | 9 | 49 | 19.3 | 33.8 | 0.00 | 0.00 | 0.00 | 85 | 1010.1 |
| 20260506012337 | 9 | 31 | 9.7 | 25.7 | 0.00 | 0.00 | 0.00 | 85 | 1010.3 |
| 20260506012226 | 9 | 70 | 9.7 | 27.4 | 0.00 | 0.00 | 0.00 | 84 | 1010.3 |
| 20260506012110 | 9 | 60 | 8.0 | 20.9 | 0.00 | 0.00 | 0.00 | 84 | 1010.4 |
| 20260506011418 | 9 | 56 | 14.5 | 30.6 | 0.00 | 0.00 | 0.00 | 84 | 1010.4 |
| 20260506011346 | 9 | 36 | 22.5 | 30.6 | 0.00 | 0.00 | 0.00 | 84 | 1009.9 |
| 20260506011334 | 9 | 19 | 6.4 | 30.6 | 0.00 | 0.00 | 0.00 | 84 | 1010.4 |
| 20260506010839 | 9 | 61 | 11.3 | 30.6 | 0.00 | 0.00 | 0.00 | 84 | 1009.9 |
| 20260506010408 | 9 | 66 | 19.3 | 29.0 | 0.00 | 0.00 | 0.00 | 84 | 1009.7 |
| 20260506010337 | 9 | 38 | 11.3 | 24.1 | 0.00 | 0.00 | 0.00 | 84 | 1009.7 |
| 20260506005908 | 9 | 64 | 12.9 | 27.4 | 0.00 | 0.00 | 0.00 | 84 | 1009.6 |
| 20260506005836 | 9 | 71 | 14.5 | 27.4 | 0.00 | 0.00 | 0.00 | 84 | 1009.6 |
| 20260506005825 | 9 | 52 | 9.7 | 27.4 | 0.00 | 0.00 | 0.00 | 84 | 1009.6 |
| 20260506005603 | 9 | 56 | 19.3 | 27.4 | 0.00 | 0.00 | 0.00 | 84 | 1009.6 |
| 20260506004909 | 9 | 69 | 16.1 | 27.4 | 0.00 | 0.00 | 0.00 | 83 | 1009.4 |
| 20260506004839 | 9 | 39 | 12.9 | 27.4 | 0.00 | 0.00 | 0.00 | 83 | 1009.4 |
| 20260506004408 | 9 | 69 | 24.1 | 27.4 | 0.00 | 0.00 | 0.00 | 83 | 1009.2 |
| 20260506004343 | 9 | 69 | 9.7 | 27.4 | 0.00 | 0.00 | 0.00 | 83 | 1009.3 |
| 20260506003906 | 10 | 45 | 16.1 | 27.4 | 0.00 | 0.00 | 0.00 | 82 | 1009.1 |
| 20260506003835 | 10 | 356 | 9.7 | 27.4 | 0.00 | 0.00 | 0.00 | 82 | 1009.1 |
| 20260506003405 | 10 | 16 | 4.8 | 27.4 | 0.00 | 0.00 | 0.00 | 82 | 1009.0 |
| 20260506003357 | 10 | 54 | 8.0 | 27.4 | 0.00 | 0.00 | 0.00 | 80 | 1009.1 |
| 20260506003347 | 10 | 69 | 8.0 | 29.0 | 0.00 | 0.00 | 0.00 | 80 | 1009.1 |
| 20260506003336 | 10 | 83 | 12.9 | 27.4 | 0.00 | 0.00 | 0.00 | 82 | 1009.0 |
| 20260506003121 | 10 | 58 | 16.1 | 27.4 | 0.00 | 0.00 | 0.00 | 80 | 1009.1 |
| 20260506002341 | 10 | 41 | 8.0 | 29.0 | 0.00 | 0.00 | 0.00 | 80 | 1009.1 |
| 20260506001905 | 10 | 62 | 14.5 | 32.2 | 0.00 | 0.00 | 0.00 | 79 | 1009.1 |
| 20260506001834 | 10 | 58 | 20.9 | 32.2 | 0.00 | 0.00 | 0.00 | 79 | 1009.1 |
| 20260506001405 | 10 | 77 | 8.0 | 32.2 | 0.00 | 0.00 | 0.00 | 78 | 1009.1 |
| 20260506001334 | 10 | 50 | 9.7 | 32.2 | 0.00 | 0.00 | 0.00 | 78 | 1009.1 |
| 20260506001154 | 10 | 40 | 17.7 | 32.2 | 0.00 | 0.00 | 0.00 | 78 | 1009.0 |
| 20260506001136 | 10 | 88 | 12.9 | 35.4 | 0.00 | 0.00 | 0.00 | 78 | 1008.9 |
| 20260506001024 | 10 | 69 | 16.1 | 33.8 | 0.00 | 0.00 | 0.00 | 78 | 1009.1 |
| 20260506001006 | 10 | 56 | 12.9 | 35.4 | 0.00 | 0.00 | 0.00 | 78 | 1009.1 |
| 20260506000541 | 10 | 38 | 19.3 | 35.4 | 0.00 | 0.00 | 0.00 | 78 | 1008.9 |
| 20260506000309 | 10 | 58 | 17.7 | 27.4 | 0.00 | 0.00 | 0.00 | 78 | 1008.8 |
| 20260506000114 | 10 | 56 | 32.2 | 33.8 | 0.00 | 0.00 | 0.00 | 77 | 1009.0 |
| 20260505235336 | 10 | 103 | 9.7 | 27.4 | 0.00 | 0.00 | 0.00 | 78 | 1008.8 |
| 20260505234905 | 10 | 40 | 8.0 | 27.4 | 0.00 | 0.00 | 0.00 | 78 | 1008.5 |
| 20260505234835 | 10 | 41 | 11.3 | 27.4 | 0.00 | 0.00 | 0.00 | 78 | 1008.5 |
| 20260505234404 | 10 | 55 | 11.3 | 27.4 | 0.00 | 0.00 | 0.00 | 78 | 1009.0 |
| 20260505234336 | 10 | 81 | 8.0 | 27.4 | 0.00 | 0.00 | 0.00 | 78 | 1009.0 |
| 20260505233905 | 10 | 52 | 17.7 | 30.6 | 0.00 | 0.00 | 0.00 | 78 | 1008.6 |
| 20260505233834 | 10 | 44 | 16.1 | 30.6 | 0.00 | 0.00 | 0.00 | 78 | 1008.6 |
| 20260505233720 | 10 | 51 | 14.5 | 29.0 | 0.00 | 0.00 | 0.00 | 78 | 1009.0 |
| 20260505233552 | 10 | 28 | 24.1 | 30.6 | 0.00 | 0.00 | 0.00 | 77 | 1009.1 |
| 20260505233535 | 10 | 15 | 6.4 | 30.6 | 0.00 | 0.00 | 0.00 | 78 | 1009.1 |
| 20260505232847 | 10 | 68 | 8.0 | 30.6 | 0.00 | 0.00 | 0.00 | 78 | 1009.3 |
| 20260505232836 | 10 | 77 | 22.5 | 29.0 | 0.00 | 0.00 | 0.00 | 78 | 1009.0 |
| 20260505232635 | 10 | 80 | 9.7 | 29.0 | 0.00 | 0.00 | 0.00 | 78 | 1009.3 |
| 20260505232245 | 11 | 47 | 9.7 | 30.6 | 0.00 | 0.00 | 0.00 | 78 | 1009.2 |
| 20260505232103 | 11 | 29 | 16.1 | 30.6 | 0.00 | 0.00 | 0.00 | 78 | 1009.2 |
| 20260505231405 | 11 | 70 | 11.3 | 30.6 | 0.00 | 0.00 | 0.00 | 78 | 1008.9 |
| 20260505231334 | 11 | 49 | 25.7 | 30.6 | 0.00 | 0.00 | 0.00 | 78 | 1008.9 |
| 20260505230910 | 11 | 108 | 11.3 | 27.4 | 0.00 | 0.00 | 0.00 | 78 | 1009.0 |
| 20260505230835 | 11 | 87 | 6.4 | 27.4 | 0.00 | 0.00 | 0.00 | 78 | 1009.0 |
| 20260505230808 | 11 | 58 | 11.3 | 32.2 | 0.00 | 0.00 | 0.00 | 78 | 1008.7 |
| 20260505230349 | 11 | 64 | 11.3 | 32.2 | 0.00 | 0.00 | 0.00 | 78 | 1008.7 |
| 20260505225907 | 11 | 59 | 17.7 | 32.2 | 0.00 | 0.00 | 0.00 | 78 | 1008.8 |
| 20260505225837 | 11 | 62 | 9.7 | 32.2 | 0.00 | 0.00 | 0.00 | 78 | 1008.8 |
| 20260505225405 | 11 | 40 | 8.0 | 25.7 | 0.00 | 0.00 | 0.00 | 79 | 1008.6 |
| 20260505225334 | 11 | 62 | 6.4 | 25.7 | 0.00 | 0.00 | 0.00 | 79 | 1008.6 |
| 20260505224910 | 11 | 71 | 16.1 | 27.4 | 0.00 | 0.00 | 0.00 | 78 | 1008.7 |
| 20260505224840 | 11 | 83 | 6.4 | 27.4 | 0.00 | 0.00 | 0.00 | 79 | 1008.7 |
| 20260505224414 | 11 | 51 | 11.3 | 40.2 | 0.00 | 0.00 | 0.00 | 78 | 1009.0 |
| 20260505224334 | 11 | 102 | 12.9 | 40.2 | 0.00 | 0.00 | 0.00 | 78 | 1009.0 |
| 20260505223903 | 11 | 73 | 8.0 | 40.2 | 0.00 | 0.00 | 0.00 | 79 | 1008.4 |
| 20260505223834 | 11 | 37 | 14.5 | 40.2 | 0.00 | 0.00 | 0.00 | 79 | 1008.4 |
| 20260505223754 | 11 | 74 | 20.9 | 37.0 | 0.00 | 0.00 | 0.00 | 78 | 1008.4 |
| 20260505223339 | 11 | 77 | 11.3 | 37.0 | 0.00 | 0.00 | 0.00 | 79 | 1008.4 |
| 20260505223247 | 11 | 32 | 16.1 | 37.0 | 0.00 | 0.00 | 0.00 | 79 | 1008.4 |
| 20260505222843 | 11 | 60 | 24.1 | 37.0 | 0.00 | 0.00 | 0.00 | 79 | 1008.4 |
| 20260505222402 | 11 | 51 | 14.5 | 30.6 | 0.00 | 0.00 | 0.00 | 78 | 1008.5 |
| 20260505222340 | 11 | 51 | 12.9 | 30.6 | 0.00 | 0.00 | 0.00 | 79 | 1008.5 |
| 20260505222107 | 11 | 23 | 14.5 | 30.6 | 0.00 | 0.00 | 0.00 | 78 | 1008.5 |
| 20260505222055 | 11 | 22 | 14.5 | 24.1 | 0.00 | 0.00 | 0.00 | 78 | 1008.3 |
| 20260505222051 | 11 | 71 | 9.7 | 24.1 | 0.00 | 0.00 | 0.00 | 79 | 1008.3 |
| 20260505222000 | 11 | 89 | 11.3 | 30.6 | 0.00 | 0.00 | 0.00 | 79 | 1008.1 |
| 20260505221943 | 11 | 58 | 29.0 | 30.6 | 0.00 | 0.00 | 0.00 | 78 | 1008.1 |
| 20260505221514 | 11 | 58 | 12.9 | 30.6 | 0.00 | 0.00 | 0.00 | 78 | 1008.5 |
| 20260505220357 | 11 | 63 | 6.4 | 22.5 | 0.00 | 0.00 | 0.00 | 78 | 1007.8 |
| 20260505220338 | 11 | 111 | 8.0 | 30.6 | 0.00 | 0.00 | 0.00 | 79 | 1007.8 |
| 20260505220235 | 11 | 83 | 6.4 | 30.6 | 0.00 | 0.00 | 0.00 | 79 | 1007.8 |
| 20260505215837 | 11 | 89 | 6.4 | 30.6 | 0.00 | 0.00 | 0.00 | 79 | 1007.8 |
| 20260505215358 | 11 | 69 | 8.0 | 35.4 | 0.00 | 0.00 | 0.00 | 79 | 1007.6 |
| 20260505215336 | 11 | 45 | 24.1 | 35.4 | 0.00 | 0.00 | 0.00 | 79 | 1007.6 |
| 20260505215234 | 11 | 53 | 14.5 | 35.4 | 0.00 | 0.00 | 0.00 | 79 | 1007.9 |
| 20260505214837 | 11 | 95 | 6.4 | 35.4 | 0.00 | 0.00 | 0.00 | 79 | 1007.9 |
| 20260505214747 | 11 | 87 | 12.9 | 48.3 | 0.00 | 0.00 | 0.00 | 79 | 1007.9 |
| 20260505214338 | 11 | 77 | 8.0 | 48.3 | 0.00 | 0.00 | 0.00 | 79 | 1007.9 |
| 20260505214015 | 11 | 60 | 20.9 | 41.8 | 0.00 | 0.00 | 0.00 | 79 | 1008.2 |
| 20260505214008 | 11 | 51 | 11.3 | 33.8 | 0.00 | 0.00 | 0.00 | 79 | 1007.9 |
| 20260505213907 | 11 | 40 | 12.9 | 48.3 | 0.00 | 0.00 | 0.00 | 79 | 1007.8 |
| 20260505213855 | 11 | 70 | 14.5 | 48.3 | 0.00 | 0.00 | 0.00 | 79 | 1007.8 |
| 20260505213612 | 11 | 71 | 11.3 | 41.8 | 0.00 | 0.00 | 0.00 | 79 | 1008.2 |
| 20260505213059 | 11 | 58 | 14.5 | 33.8 | 0.00 | 0.00 | 0.00 | 79 | 1007.9 |
| 20260505212344 | 11 | 54 | 8.0 | 33.8 | 0.00 | 0.00 | 0.00 | 79 | 1007.6 |
| 20260505212323 | 12 | 82 | 22.5 | 33.8 | 0.00 | 0.00 | 0.00 | 78 | 1007.6 |
| 20260505212225 | 12 | 54 | 12.9 | 32.2 | 0.00 | 0.00 | 0.00 | 79 | 1007.0 |
| 20260505211823 | 12 | 20 | 9.7 | 32.2 | 0.00 | 0.00 | 0.00 | 78 | 1007.0 |
| 20260505211344 | 12 | 37 | 9.7 | 32.2 | 0.00 | 0.00 | 0.00 | 79 | 1007.4 |
| 20260505211323 | 12 | 74 | 8.0 | 32.2 | 0.00 | 0.00 | 0.00 | 79 | 1007.4 |
| 20260505211203 | 12 | 70 | 16.1 | 41.8 | 0.00 | 0.00 | 0.00 | 79 | 1006.9 |
| 20260505211044 | 12 | 126 | 11.3 | 41.8 | 0.00 | 0.00 | 0.00 | 79 | 1006.9 |
| 20260505210344 | 12 | 69 | 11.3 | 41.8 | 0.00 | 0.00 | 0.00 | 79 | 1006.9 |
| 20260505210324 | 12 | 55 | 20.9 | 41.8 | 0.00 | 0.00 | 0.00 | 79 | 1006.9 |
| 20260505205844 | 12 | 91 | 17.7 | 30.6 | 0.00 | 0.00 | 0.00 | 79 | 1007.2 |
| 20260505205823 | 12 | 57 | 14.5 | 30.6 | 0.00 | 0.00 | 0.00 | 80 | 1007.2 |
| 20260505205410 | 12 | 33 | 14.5 | 35.4 | 0.00 | 0.00 | 0.00 | 80 | 1007.2 |
| 20260505205323 | 12 | 68 | 17.7 | 35.4 | 0.00 | 0.00 | 0.00 | 80 | 1007.2 |
| 20260505204843 | 12 | 41 | 6.4 | 35.4 | 0.00 | 0.00 | 0.00 | 80 | 1007.4 |
| 20260505204823 | 12 | 54 | 8.0 | 35.4 | 0.00 | 0.00 | 0.00 | 80 | 1007.4 |
| 20260505204345 | 12 | 80 | 9.7 | 41.8 | 0.00 | 0.00 | 0.00 | 80 | 1007.4 |
| 20260505204324 | 12 | 110 | 8.0 | 41.8 | 0.00 | 0.00 | 0.00 | 81 | 1007.4 |
| 20260505203843 | 11 | 45 | 20.9 | 41.8 | 0.00 | 0.00 | 0.00 | 81 | 1007.3 |
| 20260505203825 | 11 | 40 | 9.7 | 41.8 | 0.00 | 0.00 | 0.00 | 82 | 1007.3 |
| 20260505203345 | 12 | 72 | 16.1 | 20.9 | 0.00 | 0.00 | 0.00 | 82 | 1007.5 |
| 20260505203323 | 12 | 108 | 4.8 | 33.8 | 0.00 | 0.00 | 0.00 | 83 | 1007.5 |
| 20260505203046 | 12 | 28 | 20.9 | 41.8 | 0.00 | 0.00 | 0.00 | 84 | 1007.2 |
| 20260505202950 | 11 | 53 | 6.4 | 33.8 | 0.00 | 0.00 | 0.00 | 83 | 1008.0 |
| 20260505202938 | 11 | 35 | 6.4 | 33.8 | 0.00 | 0.00 | 0.00 | 83 | 1008.0 |
| 20260505202638 | 11 | 73 | 12.9 | 32.2 | 0.00 | 0.00 | 0.00 | 84 | 1007.8 |
| 20260505202625 | 11 | 73 | 17.7 | 33.8 | 0.00 | 0.00 | 0.00 | 84 | 1007.6 |
| 20260505202513 | 11 | 31 | 12.9 | 33.8 | 0.00 | 0.00 | 0.00 | 83 | 1007.6 |
| 20260505202502 | 11 | 42 | 24.1 | 33.8 | 0.00 | 0.00 | 0.00 | 83 | 1007.6 |
| 20260505202017 | 11 | 70 | 12.9 | 33.8 | 0.00 | 0.00 | 0.00 | 84 | 1007.4 |
| 20260505201605 | 11 | 101 | 12.9 | 32.2 | 0.00 | 0.00 | 0.00 | 84 | 1007.6 |
| 20260505201000 | 11 | 70 | 11.3 | 33.8 | 0.00 | 0.00 | 0.00 | 84 | 1007.0 |
| 20260505200925 | 11 | 74 | 9.7 | 32.2 | 0.00 | 0.00 | 0.00 | 84 | 1007.3 |
| 20260505200911 | 11 | 62 | 9.7 | 32.2 | 0.00 | 0.00 | 0.00 | 84 | 1007.3 |
| 20260505200459 | 11 | 114 | 6.4 | 41.8 | 0.00 | 0.00 | 0.00 | 84 | 1007.1 |
| 20260505200045 | 12 | 54 | 16.1 | 41.8 | 0.00 | 0.00 | 0.00 | 84 | 1007.2 |
| 20260505195342 | 12 | 60 | 19.3 | 41.8 | 0.00 | 0.00 | 0.00 | 84 | 1007.0 |
| 20260505195322 | 12 | 74 | 41.8 | 41.8 | 0.00 | 0.00 | 0.00 | 84 | 1006.9 |
| 20260505194843 | 12 | 46 | 22.5 | 40.2 | 0.00 | 0.00 | 0.00 | 84 | 1006.6 |
| 20260505194823 | 12 | 34 | 3.2 | 40.2 | 0.00 | 0.00 | 0.00 | 84 | 1006.6 |
| 20260505194343 | 12 | 101 | 11.3 | 27.4 | 0.00 | 0.00 | 0.00 | 84 | 1007.0 |
| 20260505194322 | 12 | 61 | 9.7 | 27.4 | 0.00 | 0.00 | 0.00 | 84 | 1007.0 |
| 20260505193842 | 12 | 70 | 6.4 | 30.6 | 0.00 | 0.00 | 0.00 | 85 | 1007.1 |
| 20260505193824 | 12 | 89 | 6.4 | 30.6 | 0.00 | 0.00 | 0.00 | 85 | 1007.0 |
| 20260505193342 | 12 | 57 | 14.5 | 30.6 | 0.00 | 0.00 | 0.00 | 85 | 1007.0 |
| 20260505193322 | 12 | 50 | 20.9 | 30.6 | 0.00 | 0.00 | 0.00 | 85 | 1007.0 |
| 20260505192843 | 12 | 97 | 14.5 | 30.6 | 0.00 | 0.00 | 0.00 | 84 | 1007.1 |
| 20260505192824 | 12 | 51 | 8.0 | 30.6 | 0.00 | 0.00 | 0.00 | 84 | 1007.1 |
| 20260505192342 | 12 | 23 | 14.5 | 32.2 | 0.00 | 0.00 | 0.00 | 85 | 1007.0 |
| 20260505192323 | 12 | 60 | 12.9 | 32.2 | 0.00 | 0.00 | 0.00 | 84 | 1007.1 |
| 20260505191842 | 12 | 46 | 16.1 | 33.8 | 0.00 | 0.00 | 0.00 | 84 | 1006.9 |
| 20260505191824 | 12 | 6 | 9.7 | 33.8 | 0.00 | 0.00 | 0.00 | 84 | 1006.9 |
| 20260505191343 | 12 | 44 | 6.4 | 33.8 | 0.00 | 0.00 | 0.00 | 84 | 1006.7 |
| 20260505191323 | 12 | 57 | 12.9 | 33.8 | 0.00 | 0.00 | 0.00 | 84 | 1006.7 |
| 20260505191145 | 12 | 59 | 8.0 | 30.6 | 0.00 | 0.00 | 0.00 | 83 | 1006.4 |
| 20260505191020 | 12 | 40 | 9.7 | 33.8 | 0.00 | 0.00 | 0.00 | 84 | 1006.5 |
| 20260505191008 | 12 | 58 | 16.1 | 33.8 | 0.00 | 0.00 | 0.00 | 83 | 1006.4 |
| 20260505190539 | 12 | 75 | 17.7 | 30.6 | 0.00 | 0.00 | 0.00 | 83 | 1006.4 |
| 20260505185843 | 13 | 50 | 14.5 | 27.4 | 0.00 | 0.00 | 0.00 | 83 | 1006.7 |
| 20260505185822 | 13 | 20 | 17.7 | 27.4 | 0.00 | 0.00 | 0.00 | 83 | 1006.7 |
| 20260505185713 | 13 | 79 | 17.7 | 30.6 | 0.00 | 0.00 | 0.00 | 83 | 1006.3 |
| 20260505185546 | 13 | 83 | 14.5 | 30.6 | 0.00 | 0.00 | 0.00 | 83 | 1006.5 |
| 20260505185234 | 13 | 38 | 11.3 | 29.0 | 0.00 | 0.00 | 0.00 | 85 | 1006.7 |
| 20260505185052 | 13 | 39 | 14.5 | 30.6 | 0.00 | 0.00 | 0.00 | 84 | 1006.7 |
| 20260505185040 | 13 | 23 | 11.3 | 30.6 | 0.00 | 0.00 | 0.00 | 84 | 1006.5 |
| 20260505184321 | 13 | 5 | 22.5 | 32.2 | 0.00 | 0.00 | 0.00 | 84 | 1006.6 |
| 20260505183842 | 13 | 73 | 6.4 | 33.8 | 0.00 | 0.00 | 0.00 | 85 | 1006.6 |
| 20260505183822 | 13 | 52 | 6.4 | 33.8 | 0.00 | 0.00 | 0.00 | 85 | 1006.6 |
| 20260505183343 | 12 | 55 | 19.3 | 33.8 | 0.00 | 0.00 | 0.00 | 85 | 1006.4 |
| 20260505183321 | 12 | 44 | 9.7 | 33.8 | 0.00 | 0.00 | 0.00 | 85 | 1006.3 |
| 20260505182842 | 12 | 59 | 16.1 | 35.4 | 0.00 | 0.00 | 0.00 | 85 | 1006.4 |
| 20260505182827 | 12 | 55 | 8.0 | 35.4 | 0.00 | 0.00 | 0.00 | 85 | 1006.4 |
| 20260505182341 | 12 | 54 | 14.5 | 35.4 | 0.00 | 0.00 | 0.00 | 85 | 1006.4 |
| 20260505182322 | 12 | 61 | 12.9 | 35.4 | 0.00 | 0.00 | 0.00 | 85 | 1006.5 |
| 20260505181856 | 13 | 109 | 14.5 | 27.4 | 0.00 | 0.00 | 0.00 | 85 | 1006.2 |
| 20260505181843 | 13 | 51 | 14.5 | 27.4 | 0.00 | 0.00 | 0.00 | 85 | 1006.2 |
| 20260505181523 | 13 | 83 | 11.3 | 37.0 | 0.00 | 0.00 | 0.00 | 85 | 1006.1 |
| 20260505181512 | 13 | 50 | 19.3 | 45.1 | 0.00 | 0.00 | 0.00 | 86 | 1006.0 |
| 20260505181433 | 13 | 36 | 6.4 | 45.1 | 0.00 | 0.00 | 0.00 | 85 | 1006.1 |
| 20260505181418 | 13 | 84 | 11.3 | 45.1 | 0.00 | 0.00 | 0.00 | 85 | 1006.0 |
| 20260505181221 | 13 | 91 | 9.7 | 45.1 | 0.00 | 0.00 | 0.00 | 86 | 1005.9 |
| 20260505180542 | 13 | 43 | 24.1 | 37.0 | 0.00 | 0.00 | 0.00 | 85 | 1006.0 |
| 20260505180222 | 13 | 56 | 14.5 | 37.0 | 0.00 | 0.00 | 0.00 | 86 | 1006.0 |
| 20260505175821 | 13 | 62 | 14.5 | 37.0 | 0.00 | 0.00 | 0.00 | 86 | 1006.0 |
| 20260505175707 | 13 | 25 | 9.7 | 32.2 | 0.00 | 0.00 | 0.00 | 86 | 1005.9 |
| 20260505175541 | 13 | 63 | 20.9 | 32.2 | 0.00 | 0.00 | 0.00 | 85 | 1006.0 |
| 20260505174841 | 13 | 81 | 6.4 | 43.5 | 0.00 | 0.00 | 0.00 | 86 | 1006.0 |
| 20260505174826 | 13 | 53 | 12.9 | 43.5 | 0.00 | 0.00 | 0.00 | 86 | 1005.9 |
| 20260505174341 | 13 | 91 | 11.3 | 43.5 | 0.00 | 0.00 | 0.00 | 86 | 1006.0 |
| 20260505174320 | 13 | 44 | 25.7 | 43.5 | 0.00 | 0.00 | 0.00 | 85 | 1005.9 |
| 20260505174200 | 13 | 66 | 20.9 | 40.2 | 0.00 | 0.00 | 0.00 | 86 | 1005.9 |
| 20260505174044 | 13 | 68 | 14.5 | 40.2 | 0.00 | 0.00 | 0.00 | 86 | 1005.8 |
| 20260505173340 | 13 | 55 | 11.3 | 33.8 | 0.00 | 0.00 | 0.00 | 86 | 1005.9 |
| 20260505173320 | 13 | 85 | 12.9 | 33.8 | 0.00 | 0.00 | 0.00 | 86 | 1005.7 |
| 20260505172844 | 13 | 26 | 6.4 | 29.0 | 0.00 | 0.00 | 0.00 | 86 | 1005.6 |
| 20260505172820 | 13 | 91 | 8.0 | 29.0 | 0.00 | 0.00 | 0.00 | 87 | 1005.7 |
| 20260505172341 | 13 | 349 | 17.7 | 37.0 | 0.00 | 0.00 | 0.00 | 86 | 1005.7 |
| 20260505172323 | 13 | 2 | 6.4 | 37.0 | 0.00 | 0.00 | 0.00 | 87 | 1005.9 |
| 20260505172232 | 13 | 50 | 11.3 | 37.0 | 0.00 | 0.00 | 0.00 | 87 | 1005.7 |
| 20260505171823 | 13 | 32 | 17.7 | 37.0 | 0.00 | 0.00 | 0.00 | 86 | 1005.6 |
| 20260505171341 | 13 | 86 | 9.7 | 37.0 | 0.00 | 0.00 | 0.00 | 86 | 1005.3 |
| 20260505171320 | 13 | 116 | 6.4 | 37.0 | 0.00 | 0.00 | 0.00 | 86 | 1005.4 |
| 20260505170841 | 13 | 63 | 9.7 | 45.1 | 0.00 | 0.00 | 0.00 | 86 | 1005.2 |
| 20260505170821 | 13 | 37 | 22.5 | 45.1 | 0.00 | 0.00 | 0.00 | 86 | 1005.2 |
| 20260505170736 | 13 | 48 | 22.5 | 45.1 | 0.00 | 0.00 | 0.00 | 86 | 1005.0 |
| 20260505170554 | 13 | 40 | 24.1 | 45.1 | 0.00 | 0.00 | 0.00 | 86 | 1005.0 |
| 20260505170224 | 14 | 46 | 9.7 | 41.8 | 0.00 | 0.00 | 0.00 | 86 | 1005.0 |
| 20260505170043 | 14 | 45 | 14.5 | 37.0 | 0.00 | 0.00 | 0.00 | 86 | 1004.7 |
| 20260505165341 | 14 | 71 | 9.7 | 41.8 | 0.00 | 0.00 | 0.00 | 86 | 1004.8 |
| 20260505165322 | 14 | 55 | 22.5 | 41.8 | 0.00 | 0.00 | 0.00 | 86 | 1004.7 |
| 20260505165230 | 14 | 38 | 27.4 | 35.4 | 0.00 | 0.00 | 0.00 | 86 | 1005.0 |
| 20260505165041 | 14 | 52 | 19.3 | 41.8 | 0.00 | 0.00 | 0.00 | 86 | 1005.0 |
| 20260505164342 | 15 | 55 | 8.0 | 37.0 | 0.00 | 0.00 | 0.00 | 86 | 1004.8 |
| 20260505164322 | 15 | 66 | 9.7 | 37.0 | 0.00 | 0.00 | 0.00 | 86 | 1004.6 |
| 20260505163840 | 15 | 70 | 11.3 | 37.0 | 0.00 | 0.00 | 0.00 | 86 | 1004.5 |
| 20260505163820 | 15 | 62 | 9.7 | 37.0 | 0.00 | 0.00 | 0.00 | 86 | 1004.5 |
| 20260505163342 | 16 | 4 | 14.5 | 32.2 | 0.00 | 0.00 | 0.00 | 86 | 1004.0 |
| 20260505163322 | 16 | 3 | 14.5 | 32.2 | 0.00 | 0.00 | 0.00 | 85 | 1004.1 |
| 20260505162842 | 16 | 70 | 14.5 | 35.4 | 0.00 | 0.00 | 0.00 | 86 | 1004.0 |
| 20260505162821 | 16 | 60 | 12.9 | 35.4 | 0.00 | 0.00 | 0.00 | 86 | 1003.9 |
| 20260505162340 | 16 | 53 | 9.7 | 35.4 | 0.00 | 0.00 | 0.00 | 86 | 1003.8 |
| 20260505162321 | 16 | 22 | 16.1 | 35.4 | 0.00 | 0.00 | 0.00 | 86 | 1003.8 |
| 20260505162233 | 17 | 43 | 17.7 | 35.4 | 0.00 | 0.00 | 0.00 | 85 | 1003.6 |
| 20260505161824 | 17 | 56 | 24.1 | 35.4 | 0.00 | 0.00 | 0.00 | 85 | 1003.6 |
| 20260505161340 | 17 | 334 | 16.1 | 35.4 | 0.00 | 0.00 | 0.00 | 85 | 1003.2 |
| 20260505161322 | 17 | 10 | 19.3 | 35.4 | 0.00 | 0.00 | 0.00 | 85 | 1002.9 |
| 20260505161223 | 18 | 77 | 9.7 | 40.2 | 0.00 | 0.00 | 0.00 | 85 | 1002.7 |
| 20260505160821 | 18 | 62 | 11.3 | 40.2 | 0.00 | 0.00 | 0.00 | 85 | 1002.6 |
| 20260505160632 | 20 | 65 | 14.5 | 37.0 | 0.00 | 0.00 | 0.00 | 85 | 1002.7 |
| 20260505160515 | 18 | 36 | 19.3 | 40.2 | 0.00 | 0.00 | 0.00 | 85 | 1002.7 |
| 20260505160503 | 18 | 62 | 24.1 | 40.2 | 0.00 | 0.00 | 0.00 | 85 | 1002.6 |
| 20260505153338 | 21 | 49 | 9.7 | 19.3 | 0.00 | 0.00 | 0.00 | 85 | 1002.4 |
| 20260505153316 | 21 | 84 | 8.0 | 19.3 | 0.00 | 0.00 | 0.00 | 85 | 1002.4 |
| 20260505152845 | 21 | 62 | 8.0 | 19.3 | 0.00 | 0.00 | 0.00 | 84 | 1002.4 |
| 20260505152829 | 21 | 30 | 3.2 | 19.3 | 0.00 | 0.00 | 0.00 | 85 | 1002.3 |
| 20260505152335 | 21 | 101 | 8.0 | 19.3 | 0.00 | 0.00 | 0.00 | 83 | 1002.1 |
| 20260505152317 | 21 | 56 | 1.6 | 19.3 | 0.00 | 0.00 | 0.00 | 83 | 1002.1 |
| 20260505152229 | 21 | 105 | 6.4 | 16.1 | 0.00 | 0.00 | 0.00 | 83 | 1001.9 |
| 20260505151817 | 21 | 91 | 6.4 | 16.1 | 0.00 | 0.00 | 0.00 | 83 | 1001.9 |
| 20260505151342 | 21 | 35 | 9.7 | 17.7 | 0.00 | 0.00 | 0.00 | 83 | 1001.6 |
| 20260505151317 | 21 | 87 | 6.4 | 17.7 | 0.00 | 0.00 | 0.00 | 84 | 1001.6 |
| 20260505150840 | 21 | 113 | 9.7 | 17.7 | 0.00 | 0.00 | 0.00 | 83 | 1001.7 |
| 20260505150816 | 21 | 82 | 16.1 | 16.1 | 0.00 | 0.00 | 0.00 | 83 | 1001.6 |
| 20260505150338 | 22 | 35 | 9.7 | 14.5 | 0.00 | 0.00 | 0.00 | 83 | 1001.7 |
| 20260505150317 | 22 | 85 | 11.3 | 14.5 | 0.00 | 0.00 | 0.00 | 83 | 1001.5 |
| 20260505140330 | 22 | 138 | 1.6 | 8.0 | 0.00 | 0.00 | 0.00 | 80 | 1001.0 |
| 20260505140306 | 22 | 152 | 3.2 | 8.0 | 0.00 | 0.00 | 0.00 | 80 | 1001.2 |
| 20260505130305 | 20 | 99 | 3.2 | 3.2 | 0.00 | 0.00 | 0.00 | 88 | 1000.8 |
| 20260505130205 | 20 | 15 | 0.0 | 3.2 | 0.00 | 0.00 | 0.00 | 88 | 1000.9 |
| 20260505124830 | 20 | 192 | 3.2 | 3.2 | 0.00 | 0.00 | 0.00 | 87 | 1000.8 |
| 20260505124805 | 20 | 192 | 3.2 | 3.2 | 0.00 | 0.00 | 0.00 | 87 | 1000.6 |
| 20260505124344 | 20 | 163 | 1.6 | 6.4 | 0.00 | 0.00 | 0.00 | 87 | 1000.9 |
| 20260505124332 | 20 | 122 | 0.0 | 4.8 | 0.00 | 0.00 | 0.00 | 87 | 1000.7 |
| 20260505124315 | 20 | 98 | 3.2 | 6.4 | 0.00 | 0.00 | 0.00 | 87 | 1000.8 |
| 20260505123806 | 20 | 178 | 3.2 | 6.4 | 0.00 | 0.00 | 0.00 | 87 | 1000.8 |
| 20260505123329 | 19 | 20 | 3.2 | 6.4 | 0.00 | 0.00 | 0.00 | 86 | 1000.7 |
| 20260505123305 | 19 | 71 | 4.8 | 6.4 | 0.00 | 0.00 | 0.00 | 87 | 1000.7 |
| 20260505123219 | 20 | 129 | 1.6 | 6.4 | 0.00 | 0.00 | 0.00 | 86 | 1000.6 |
| 20260505122806 | 20 | 131 | 3.2 | 6.4 | 0.00 | 0.00 | 0.00 | 86 | 1000.5 |
| 20260505122330 | 20 | 222 | 1.6 | 8.0 | 0.00 | 0.00 | 0.00 | 85 | 1000.6 |
| 20260505122306 | 20 | 157 | 0.0 | 8.0 | 0.00 | 0.00 | 0.00 | 85 | 1000.5 |
| 20260505122112 | 20 | 17 | 1.6 | 4.8 | 0.00 | 0.00 | 0.00 | 85 | 1000.5 |
| 20260505122104 | 20 | 68 | 1.6 | 4.8 | 0.00 | 0.00 | 0.00 | 85 | 1000.4 |
| 20260505121952 | 20 | 110 | 4.8 | 8.0 | 0.00 | 0.00 | 0.00 | 85 | 1000.4 |
| 20260505121936 | 20 | 108 | 3.2 | 8.0 | 0.00 | 0.00 | 0.00 | 85 | 1000.7 |
| 20260505120829 | 20 | 48 | 1.6 | 4.8 | 0.00 | 0.00 | 0.00 | 84 | 1000.2 |
| 20260505120806 | 20 | 88 | 3.2 | 4.8 | 0.00 | 0.00 | 0.00 | 84 | 1000.2 |
| 20260505120726 | 20 | 93 | 3.2 | 6.4 | 0.00 | 0.00 | 0.00 | 83 | 1000.2 |
| 20260505120305 | 20 | 97 | 3.2 | 8.0 | 0.00 | 0.00 | 0.00 | 83 | 1000.2 |
| 20260505115830 | 20 | 113 | 0.0 | 14.5 | 0.00 | 0.00 | 0.00 | 82 | 999.9 |
| 20260505115806 | 20 | 163 | 1.6 | 14.5 | 0.00 | 0.00 | 0.00 | 82 | 999.9 |
| 20260505115721 | 20 | 194 | 4.8 | 14.5 | 0.00 | 0.00 | 0.00 | 82 | 999.7 |
| 20260505115306 | 20 | 239 | 4.8 | 14.5 | 0.00 | 0.00 | 0.00 | 82 | 999.6 |
| 20260505115219 | 20 | 236 | 3.2 | 14.5 | 0.00 | 0.00 | 0.00 | 82 | 999.5 |
| 20260505114806 | 20 | 276 | 6.4 | 14.5 | 0.00 | 0.00 | 0.00 | 82 | 999.4 |
| 20260505114341 | 20 | 226 | 3.2 | 16.1 | 0.00 | 0.00 | 0.00 | 82 | 999.3 |
| 20260505114329 | 20 | 261 | 3.2 | 16.1 | 0.00 | 0.00 | 0.00 | 82 | 999.5 |
| 20260505114313 | 20 | 226 | 8.0 | 16.1 | 0.00 | 0.00 | 0.00 | 82 | 999.4 |
| 20260505113807 | 20 | 231 | 3.2 | 16.1 | 0.00 | 0.00 | 0.00 | 82 | 999.4 |
| 20260505113329 | 20 | 284 | 1.6 | 16.1 | 0.00 | 0.00 | 0.00 | 82 | 999.1 |
| 20260505113307 | 20 | 203 | 4.8 | 16.1 | 0.00 | 0.00 | 0.00 | 82 | 999.0 |
| 20260505112829 | 20 | 239 | 9.7 | 16.1 | 0.00 | 0.00 | 0.00 | 81 | 999.0 |
| 20260505112805 | 20 | 252 | 8.0 | 16.1 | 0.00 | 0.00 | 0.00 | 81 | 999.0 |
| 20260505112330 | 20 | 268 | 6.4 | 19.3 | 0.00 | 0.00 | 0.00 | 81 | 998.8 |
| 20260505112305 | 20 | 200 | 3.2 | 19.3 | 0.00 | 0.00 | 0.00 | 81 | 999.0 |
| 20260505111829 | 20 | 263 | 9.7 | 19.3 | 0.00 | 0.00 | 0.00 | 81 | 999.0 |
| 20260505111807 | 20 | 246 | 8.0 | 19.3 | 0.00 | 0.00 | 0.00 | 81 | 998.9 |
| 20260505111328 | 21 | 257 | 9.7 | 20.9 | 0.00 | 0.00 | 0.00 | 81 | 998.7 |
| 20260505111306 | 21 | 247 | 9.7 | 20.9 | 0.00 | 0.00 | 0.00 | 81 | 998.7 |
| 20260505110835 | 21 | 239 | 8.0 | 24.1 | 0.00 | 0.00 | 0.00 | 80 | 998.8 |
| 20260505110820 | 21 | 240 | 3.2 | 24.1 | 0.00 | 0.00 | 0.00 | 80 | 998.7 |
| 20260505110338 | 21 | 248 | 9.7 | 25.7 | 0.00 | 0.00 | 0.00 | 80 | 998.7 |
| 20260505110321 | 21 | 256 | 9.7 | 25.7 | 0.00 | 0.00 | 0.00 | 80 | 998.5 |
| 20260505101835 | 21 | 249 | 14.5 | 30.6 | 0.00 | 0.00 | 0.00 | 79 | 998.4 |
| 20260505101806 | 21 | 228 | 17.7 | 30.6 | 0.00 | 0.00 | 0.00 | 79 | 998.4 |
| 20260505101704 | 21 | 201 | 12.9 | 30.6 | 0.00 | 0.00 | 0.00 | 79 | 998.4 |
| 20260505101538 | 21 | 206 | 11.3 | 30.6 | 0.00 | 0.00 | 0.00 | 79 | 998.2 |
| 20260505100859 | 21 | 210 | 14.5 | 30.6 | 0.00 | 0.00 | 0.00 | 78 | 998.5 |
| 20260505100808 | 21 | 244 | 16.1 | 30.6 | 0.00 | 0.00 | 0.00 | 78 | 998.5 |
| 20260505100333 | 21 | 213 | 22.5 | 30.6 | 0.00 | 0.00 | 0.00 | 78 | 998.3 |
| 20260505100307 | 21 | 233 | 19.3 | 30.6 | 0.00 | 0.00 | 0.00 | 79 | 998.4 |
| 20260505100240 | 21 | 214 | 11.3 | 33.8 | 0.00 | 0.00 | 0.00 | 78 | 998.5 |
| 20260505100042 | 21 | 238 | 14.5 | 33.8 | 0.00 | 0.00 | 0.00 | 78 | 998.3 |
| 20260505095331 | 21 | 245 | 9.7 | 33.8 | 0.00 | 0.00 | 0.00 | 78 | 998.6 |
| 20260505095306 | 21 | 249 | 9.7 | 33.8 | 0.00 | 0.00 | 0.00 | 78 | 998.5 |
| 20260505094831 | 21 | 242 | 14.5 | 30.6 | 0.00 | 0.00 | 0.00 | 78 | 998.4 |
| 20260505094806 | 21 | 240 | 11.3 | 30.6 | 0.00 | 0.00 | 0.00 | 78 | 998.4 |
| 20260505094333 | 21 | 195 | 29.0 | 30.6 | 0.00 | 0.00 | 0.00 | 78 | 998.5 |
| 20260505094311 | 21 | 237 | 14.5 | 30.6 | 0.00 | 0.00 | 0.00 | 78 | 998.4 |
| 20260505093856 | 21 | 225 | 12.9 | 30.6 | 0.00 | 0.00 | 0.00 | 79 | 998.6 |
| 20260505093808 | 21 | 275 | 6.4 | 30.6 | 0.00 | 0.00 | 0.00 | 79 | 998.3 |
| 20260505093714 | 21 | 251 | 11.3 | 29.0 | 0.00 | 0.00 | 0.00 | 79 | 998.3 |
| 20260505093306 | 21 | 222 | 14.5 | 29.0 | 0.00 | 0.00 | 0.00 | 79 | 998.4 |
| 20260505092831 | 21 | 215 | 12.9 | 25.7 | 0.00 | 0.00 | 0.00 | 79 | 998.3 |
| 20260505092806 | 21 | 236 | 14.5 | 25.7 | 0.00 | 0.00 | 0.00 | 79 | 998.4 |
| 20260505092332 | 21 | 252 | 12.9 | 25.7 | 0.00 | 0.00 | 0.00 | 79 | 998.2 |
| 20260505092306 | 21 | 207 | 12.9 | 25.7 | 0.00 | 0.00 | 0.00 | 79 | 998.4 |
| 20260505092218 | 21 | 240 | 12.9 | 24.1 | 0.00 | 0.00 | 0.00 | 79 | 998.5 |
| 20260505091807 | 21 | 215 | 16.1 | 25.7 | 0.00 | 0.00 | 0.00 | 79 | 998.4 |
| 20260505091653 | 21 | 247 | 11.3 | 25.7 | 0.00 | 0.00 | 0.00 | 79 | 998.5 |
| 20260505091532 | 21 | 253 | 12.9 | 25.7 | 0.00 | 0.00 | 0.00 | 79 | 998.4 |
| 20260505090854 | 21 | 212 | 16.1 | 30.6 | 0.00 | 0.00 | 0.00 | 78 | 998.6 |
| 20260505090806 | 21 | 197 | 24.1 | 30.6 | 0.00 | 0.00 | 0.00 | 78 | 998.6 |
| 20260505090332 | 21 | 234 | 16.1 | 30.6 | 0.00 | 0.00 | 0.00 | 78 | 998.6 |
| 20260505090306 | 21 | 250 | 14.5 | 30.6 | 0.00 | 0.00 | 0.00 | 78 | 998.7 |
| 20260505090154 | 21 | 219 | 4.8 | 29.0 | 0.00 | 0.00 | 0.00 | 78 | 998.6 |
| 20260505090032 | 21 | 222 | 20.9 | 29.0 | 0.00 | 0.00 | 0.00 | 78 | 998.7 |
| 20260505085331 | 21 | 226 | 11.3 | 30.6 | 0.00 | 0.00 | 0.00 | 78 | 998.8 |
| 20260505085306 | 21 | 244 | 16.1 | 30.6 | 0.00 | 0.00 | 0.00 | 78 | 998.6 |
| 20260505084832 | 21 | 230 | 14.5 | 30.6 | 0.00 | 0.00 | 0.00 | 78 | 998.7 |
| 20260505084806 | 21 | 248 | 9.7 | 30.6 | 0.00 | 0.00 | 0.00 | 78 | 998.5 |
| 20260505084727 | 21 | 255 | 16.1 | 25.7 | 0.00 | 0.00 | 0.00 | 78 | 998.6 |
| 20260505084305 | 21 | 190 | 8.0 | 25.7 | 0.00 | 0.00 | 0.00 | 78 | 998.6 |
| 20260505084140 | 21 | 228 | 14.5 | 27.4 | 0.00 | 0.00 | 0.00 | 78 | 998.9 |
| 20260505084128 | 21 | 223 | 22.5 | 30.6 | 0.00 | 0.00 | 0.00 | 78 | 998.8 |
| 20260505084011 | 21 | 240 | 19.3 | 30.6 | 0.00 | 0.00 | 0.00 | 78 | 998.7 |
| 20260505083954 | 21 | 243 | 11.3 | 30.6 | 0.00 | 0.00 | 0.00 | 78 | 998.7 |
| 20260505083500 | 21 | 229 | 17.7 | 30.6 | 0.00 | 0.00 | 0.00 | 78 | 998.7 |
| 20260505082806 | 21 | 255 | 16.1 | 27.4 | 0.00 | 0.00 | 0.00 | 78 | 999.0 |
| 20260505082728 | 21 | 219 | 19.3 | 27.4 | 0.00 | 0.00 | 0.00 | 78 | 999.1 |
| 20260505082305 | 21 | 223 | 11.3 | 27.4 | 0.00 | 0.00 | 0.00 | 78 | 999.0 |
| 20260505081833 | 21 | 221 | 11.3 | 24.1 | 0.00 | 0.00 | 0.00 | 79 | 999.0 |
| 20260505081808 | 21 | 237 | 9.7 | 24.1 | 0.00 | 0.00 | 0.00 | 78 | 999.1 |
| 20260505081332 | 21 | 211 | 4.8 | 24.1 | 0.00 | 0.00 | 0.00 | 78 | 999.1 |
| 20260505081308 | 21 | 256 | 12.9 | 24.1 | 0.00 | 0.00 | 0.00 | 79 | 998.9 |
| 20260505080832 | 21 | 262 | 3.2 | 33.8 | 0.00 | 0.00 | 0.00 | 79 | 998.9 |
| 20260505080810 | 21 | 212 | 14.5 | 33.8 | 0.00 | 0.00 | 0.00 | 79 | 999.1 |
| 20260505080800 | 21 | 213 | 9.7 | 33.8 | 0.00 | 0.00 | 0.00 | 79 | 999.0 |
| 20260505080601 | 21 | 196 | 9.7 | 33.8 | 0.00 | 0.00 | 0.00 | 79 | 999.1 |
| 20260505080115 | 21 | 255 | 17.7 | 33.8 | 0.00 | 0.00 | 0.00 | 78 | 999.1 |
| 20260505080054 | 21 | 238 | 14.5 | 33.8 | 0.00 | 0.00 | 0.00 | 78 | 999.4 |
| 20260505075948 | 21 | 217 | 16.1 | 29.0 | 0.00 | 0.00 | 0.00 | 78 | 999.3 |
| 20260505075926 | 21 | 214 | 6.4 | 29.0 | 0.00 | 0.00 | 0.00 | 78 | 999.3 |
| 20260505075505 | 21 | 246 | 9.7 | 33.8 | 0.00 | 0.00 | 0.00 | 78 | 999.0 |
| 20260505075446 | 21 | 190 | 6.4 | 33.8 | 0.00 | 0.00 | 0.00 | 78 | 999.1 |
| 20260505074334 | 21 | 212 | 19.3 | 33.8 | 0.00 | 0.00 | 0.00 | 78 | 999.1 |
| 20260505074306 | 21 | 221 | 20.9 | 33.8 | 0.00 | 0.00 | 0.00 | 78 | 999.3 |
| 20260505073834 | 21 | 250 | 14.5 | 32.2 | 0.00 | 0.00 | 0.00 | 78 | 999.4 |
| 20260505073807 | 21 | 228 | 14.5 | 32.2 | 0.00 | 0.00 | 0.00 | 78 | 999.3 |
| 20260505073724 | 21 | 235 | 14.5 | 30.6 | 0.00 | 0.00 | 0.00 | 78 | 999.4 |
| 20260505073715 | 21 | 205 | 24.1 | 30.6 | 0.00 | 0.00 | 0.00 | 79 | 999.7 |
| 20260505073532 | 21 | 223 | 11.3 | 32.2 | 0.00 | 0.00 | 0.00 | 78 | 999.3 |
| 20260505073512 | 21 | 256 | 22.5 | 32.2 | 0.00 | 0.00 | 0.00 | 78 | 999.4 |
| 20260505072332 | 21 | 219 | 24.1 | 33.8 | 0.00 | 0.00 | 0.00 | 78 | 999.6 |
| 20260505072308 | 21 | 252 | 14.5 | 33.8 | 0.00 | 0.00 | 0.00 | 78 | 999.6 |
| 20260505072237 | 21 | 181 | 19.3 | 41.8 | 0.00 | 0.00 | 0.00 | 78 | 999.5 |
| 20260505071807 | 21 | 233 | 20.9 | 41.8 | 0.00 | 0.00 | 0.00 | 78 | 999.7 |
| 20260505071736 | 21 | 251 | 17.7 | 41.8 | 0.00 | 0.00 | 0.00 | 78 | 999.7 |
| 20260505071305 | 21 | 199 | 12.9 | 41.8 | 0.00 | 0.00 | 0.00 | 78 | 999.7 |
| 20260505070848 | 21 | 195 | 19.3 | 30.6 | 0.00 | 0.00 | 0.00 | 78 | 999.9 |
| 20260505070832 | 21 | 257 | 17.7 | 32.2 | 0.00 | 0.00 | 0.00 | 78 | 999.8 |
| 20260505070811 | 21 | 259 | 19.3 | 32.2 | 0.00 | 0.00 | 0.00 | 79 | 999.7 |
| 20260505070336 | 21 | 205 | 19.3 | 32.2 | 0.00 | 0.00 | 0.00 | 78 | 999.8 |
| 20260505070319 | 21 | 216 | 17.7 | 32.2 | 0.00 | 0.00 | 0.00 | 78 | 999.8 |
| 20260505065805 | 21 | 208 | 12.9 | 30.6 | 0.00 | 0.00 | 0.00 | 78 | 999.9 |
| 20260505065726 | 21 | 214 | 12.9 | 29.0 | 0.00 | 0.00 | 0.00 | 79 | 999.9 |
| 20260505065306 | 21 | 223 | 11.3 | 29.0 | 0.00 | 0.00 | 0.00 | 79 | 999.8 |
| 20260505065212 | 21 | 233 | 6.4 | 37.0 | 0.00 | 0.00 | 0.00 | 79 | 1000.0 |
| 20260505065032 | 21 | 213 | 4.8 | 37.0 | 0.00 | 0.00 | 0.00 | 79 | 999.9 |
| 20260505064340 | 21 | 194 | 12.9 | 37.0 | 0.00 | 0.00 | 0.00 | 78 | 999.9 |
| 20260505064308 | 21 | 200 | 29.0 | 37.0 | 0.00 | 0.00 | 0.00 | 78 | 999.9 |
| 20260505063834 | 21 | 212 | 11.3 | 37.0 | 0.00 | 0.00 | 0.00 | 78 | 999.9 |
| 20260505063806 | 21 | 247 | 6.4 | 37.0 | 0.00 | 0.00 | 0.00 | 78 | 999.9 |
| 20260505063553 | 21 | 241 | 19.3 | 38.6 | 0.00 | 0.00 | 0.00 | 78 | 1000.1 |
| 20260505063548 | 21 | 218 | 12.9 | 38.6 | 0.00 | 0.00 | 0.00 | 78 | 1000.2 |
| 20260505063440 | 21 | 192 | 16.1 | 37.0 | 0.00 | 0.00 | 0.00 | 78 | 999.8 |
| 20260505063424 | 21 | 188 | 14.5 | 37.0 | 0.00 | 0.00 | 0.00 | 78 | 1000.0 |
| 20260505063228 | 21 | 239 | 12.9 | 38.6 | 0.00 | 0.00 | 0.00 | 78 | 1000.1 |
| 20260505062426 | 21 | 213 | 8.0 | 38.6 | 0.00 | 0.00 | 0.00 | 78 | 1000.2 |
| 20260505061838 | 21 | 201 | 17.7 | 38.6 | 0.00 | 0.00 | 0.00 | 78 | 1000.2 |
| 20260505061806 | 21 | 233 | 25.7 | 38.6 | 0.00 | 0.00 | 0.00 | 78 | 1000.2 |
| 20260505061333 | 21 | 205 | 24.1 | 40.2 | 0.00 | 0.00 | 0.00 | 78 | 1000.1 |
| 20260505061306 | 21 | 219 | 24.1 | 40.2 | 0.00 | 0.00 | 0.00 | 78 | 1000.2 |
| 20260505060832 | 21 | 235 | 25.7 | 40.2 | 0.00 | 0.00 | 0.00 | 77 | 1000.3 |
| 20260505060807 | 21 | 205 | 35.4 | 40.2 | 0.00 | 0.00 | 0.00 | 78 | 1000.3 |
| 20260505060332 | 21 | 228 | 20.9 | 37.0 | 0.00 | 0.00 | 0.00 | 77 | 1000.5 |
| 20260505060308 | 21 | 218 | 12.9 | 37.0 | 0.00 | 0.00 | 0.00 | 77 | 1000.5 |
| 20260505060253 | 21 | 241 | 17.7 | 37.0 | 0.00 | 0.00 | 0.00 | 77 | 1000.6 |
| 20260505060108 | 21 | 216 | 17.7 | 37.0 | 0.00 | 0.00 | 0.00 | 77 | 1000.4 |
| 20260505055333 | 21 | 196 | 14.5 | 33.8 | 0.00 | 0.00 | 0.00 | 78 | 1000.6 |
| 20260505055307 | 21 | 221 | 24.1 | 33.8 | 0.00 | 0.00 | 0.00 | 78 | 1000.5 |
| 20260505054832 | 21 | 211 | 16.1 | 33.8 | 0.00 | 0.00 | 0.00 | 77 | 1000.5 |
| 20260505054806 | 21 | 174 | 16.1 | 33.8 | 0.00 | 0.00 | 0.00 | 77 | 1000.3 |
| 20260505054332 | 21 | 206 | 20.9 | 33.8 | 0.00 | 0.00 | 0.00 | 77 | 1000.6 |
| 20260505054306 | 21 | 197 | 24.1 | 33.8 | 0.00 | 0.00 | 0.00 | 77 | 1000.5 |
| 20260505054213 | 21 | 239 | 11.3 | 35.4 | 0.00 | 0.00 | 0.00 | 77 | 1000.4 |
| 20260505053806 | 21 | 225 | 22.5 | 35.4 | 0.00 | 0.00 | 0.00 | 77 | 1000.5 |
| 20260505053333 | 21 | 225 | 4.8 | 37.0 | 0.00 | 0.00 | 0.00 | 77 | 1000.6 |
| 20260505053305 | 21 | 190 | 6.4 | 37.0 | 0.00 | 0.00 | 0.00 | 77 | 1000.6 |
| 20260505052834 | 21 | 216 | 14.5 | 37.0 | 0.00 | 0.00 | 0.00 | 77 | 1000.6 |
| 20260505052806 | 21 | 224 | 17.7 | 37.0 | 0.00 | 0.00 | 0.00 | 77 | 1000.6 |
| 20260505052716 | 21 | 222 | 22.5 | 37.0 | 0.00 | 0.00 | 0.00 | 77 | 1000.7 |
| 20260505052306 | 21 | 198 | 12.9 | 37.0 | 0.00 | 0.00 | 0.00 | 77 | 1000.5 |
| 20260505051832 | 21 | 218 | 22.5 | 37.0 | 0.00 | 0.00 | 0.00 | 77 | 1000.6 |
| 20260505051806 | 21 | 188 | 6.4 | 37.0 | 0.00 | 0.00 | 0.00 | 77 | 1000.7 |
| 20260505051333 | 21 | 227 | 20.9 | 37.0 | 0.00 | 0.00 | 0.00 | 77 | 1000.7 |
| 20260505051306 | 21 | 197 | 16.1 | 37.0 | 0.00 | 0.00 | 0.00 | 77 | 1000.7 |
| 20260505050833 | 21 | 192 | 16.1 | 30.6 | 0.00 | 0.00 | 0.00 | 77 | 1000.9 |
| 20260505050808 | 21 | 226 | 17.7 | 30.6 | 0.00 | 0.00 | 0.00 | 77 | 1000.8 |
| 20260505050727 | 21 | 202 | 12.9 | 29.0 | 0.00 | 0.00 | 0.00 | 77 | 1000.8 |
| 20260505050322 | 21 | 199 | 16.1 | 29.0 | 0.00 | 0.00 | 0.00 | 77 | 1000.7 |
| 20260505041308 | 22 | 206 | 14.5 | 35.4 | 0.00 | 0.00 | 0.00 | 75 | 1001.0 |
| 20260505040808 | 22 | 192 | 14.5 | 40.2 | 0.00 | 0.00 | 0.00 | 74 | 1000.9 |
| 20260505040307 | 22 | 213 | 25.7 | 40.2 | 0.00 | 0.00 | 0.00 | 74 | 1001.2 |
| 20260505035837 | 22 | 190 | 6.4 | 37.0 | 0.00 | 0.00 | 0.00 | 74 | 1001.4 |
| 20260505035307 | 22 | 238 | 16.1 | 45.1 | 0.00 | 0.00 | 0.00 | 74 | 1001.1 |
| 20260505034806 | 22 | 211 | 19.3 | 45.1 | 0.00 | 0.00 | 0.00 | 73 | 1001.0 |
| 20260505034248 | 22 | 208 | 25.7 | 56.3 | 0.00 | 0.00 | 0.00 | 73 | 1001.0 |
| 20260505033743 | 22 | 218 | 19.3 | 56.3 | 0.00 | 0.00 | 0.00 | 73 | 1001.0 |
| 20260505033256 | 22 | 187 | 14.5 | 40.2 | 0.00 | 0.00 | 0.00 | 73 | 1001.0 |
| 20260505033234 | 22 | 226 | 4.8 | 45.1 | 0.00 | 0.00 | 0.00 | 73 | 1001.0 |
| 20260505033016 | 22 | 187 | 14.5 | 40.2 | 0.00 | 0.00 | 0.00 | 73 | 1001.0 |
| 20260505032636 | 22 | 206 | 19.3 | 40.2 | 0.00 | 0.00 | 0.00 | 73 | 1000.9 |
| 20260505032234 | 22 | 206 | 19.3 | 40.2 | 0.00 | 0.00 | 0.00 | 73 | 1000.9 |
| 20260505031736 | 22 | 207 | 27.4 | 33.8 | 0.00 | 0.00 | 0.00 | 73 | 1001.0 |
| 20260505031638 | 22 | 219 | 16.1 | 38.6 | 0.00 | 0.00 | 0.00 | 72 | 1001.0 |
| 20260505031448 | 22 | 219 | 16.1 | 38.6 | 0.00 | 0.00 | 0.00 | 72 | 1001.0 |
| 20260505030735 | 22 | 202 | 19.3 | 38.6 | 0.00 | 0.00 | 0.00 | 72 | 1000.9 |
| 20260505030631 | 22 | 233 | 9.7 | 37.0 | 0.00 | 0.00 | 0.00 | 71 | 1000.8 |
| 20260505030235 | 22 | 233 | 9.7 | 37.0 | 0.00 | 0.00 | 0.00 | 71 | 1000.8 |